SCP
0 -0 -0 1 0 0 -0 0 -0 -0 -0 -0 -0 -0 -0 -0 -0 -0 -0 -0 0 -0
1 0 0 1 1 0 -0 0 -0 -0 -0 -0 -0 -0 -0 -0 -0 -0 0 -0 0 -0
1 1 1 0 1 1 0 -0 0 0 -0 -0 -0 -0 -0 -0 -0 -0 -0 0 -0 0
0 1 0 1 0 0 -0 1 1 1 1 0 0 -0 -0 0 0 -0 -0 -0 0 -0
1 1 1 0 0 1 0 1 2 1 1 0 0 0 -0 -0 0 -0 -0 -0 0 0
1 1 1 0 1 1 1 1 1 1 1 1 0 0 0 -0 -0 0 -0 -0 0 -0
1 1 1 1 0 2 1 1 1 1 1 1 0 0 0 0 0 -0 0 -0 -0 0
1 2 1 1 1 0 1 1 1 1 1 1 0 0 0 0 0 -0 0 -0 0 0
2 2 1 1 1 1 1 1 1 1 1 1 1 0 0 0 0 0 0 0 -0 -0
2 2 1 1 1 1 1 2 1 1 1 1 0 0 0 0 0 0 0 0 0 0
1 2 2 2 1 1 1 1 2 1 1 1 1 0 0 0 -0 0 0 0 0 0
1 2 2 2 1 1 1 1 1 1 1 1 1 0 0 0 0 0 0 0 0 0
2 2 2 2 2 2 2 2 2 1 1 1 1 1 0 0 0 0 0 0 0 0
2 2 3 3 2 2 2 2 2 1 2 1 1 1 0 0 0 1 0 0 0 0
Wind_Speed_500mb
70 67 59 41 50 38 30 41 34 28 25 25 21 21 17 17 21 21 27 31 26 15
82 71 69 55 47 49 43 35 38 33 28 28 29 21 19 14 17 22 20 22 35 25
92 83 73 63 57 50 49 40 31 37 35 30 34 33 33 20 17 24 22 22 14 21
94 92 86 74 69 66 56 51 51 35 37 36 34 39 38 33 29 32 21 25 26 28
90 91 92 89 80 77 70 62 61 56 38 38 37 38 43 35 44 33 36 31 31 26
89 88 91 91 91 85 79 73 71 65 60 57 46 41 43 40 37 44 42 37 36 40
91 93 94 89 88 84 82 81 77 70 64 59 55 49 48 48 42 41 47 42 40 41
92 94 90 88 87 87 88 84 80 71 66 64 62 58 54 50 48 42 45 45 49 49
86 89 89 88 87 86 87 91 87 80 71 70 68 63 52 50 49 53 49 46 51 52
86 90 93 88 87 86 90 88 88 84 78 76 73 66 56 55 55 52 54 55 50 49
91 93 90 91 92 92 89 92 89 88 83 80 77 70 63 61 60 60 58 56 54 54
95 93 93 94 93 93 90 88 90 86 86 84 80 74 66 63 67 68 67 64 64 66
88 88 91 95 91 92 91 92 87 86 85 84 81 76 70 66 65 73 72 70 69 67
82 91 89 88 85 85 87 87 88 87 87 87 84 82 77 74 75 76 73 72 70 67
Wind_Direction_500mb
202 196 199 203 203 205 204 212 228 217 228 222 210 219 221 219 212 213 212 199 195 205
212 204 202 201 199 210 207 215 223 220 229 231 215 216 234 220 208 211 221 215 208 208
214 216 210 200 206 205 207 205 219 230 238 233 216 213 227 215 231 228 233 216 216 212
219 219 217 215 211 210 202 210 217 212 228 237 225 218 224 213 219 237 247 216 230 246
217 222 222 217 218 218 213 208 215 218 219 230 231 227 226 223 206 226 232 220 216 232
218 216 224 223 218 221 221 221 219 224 226 235 238 232 232 233 219 214 234 235 232 236
218 218 219 224 222 214 223 224 228 228 234 234 239 238 232 236 237 225 222 238 244 241
217 219 218 216 225 220 215 226 229 232 233 236 237 239 237 234 237 239 233 227 236 243
213 217 216 215 216 224 222 224 231 235 233 234 236 238 235 241 235 237 244 241 236 236
213 214 218 217 214 216 224 225 228 233 233 234 237 238 234 236 242 243 243 246 251 248
210 215 215 215 218 217 219 227 229 232 233 234 238 240 238 235 238 246 250 250 252 255
212 212 212 216 219 219 217 222 230 233 234 235 237 240 241 239 237 241 248 252 251 253
213 210 212 217 220 220 220 226 230 234 236 238 241 241 243 244 242 243 248 254 258 259
216 213 214 214 218 220 220 223 228 233 236 240 243 245 246 245 246 247 251 255 260 265
Wind_Speed_850mb
70 67 59 41 50 38 30 41 34 28 25 25 21 21 17 17 21 21 27 31 26 15
82 71 69 55 47 49 43 35 38 33 28 28 29 21 19 14 17 22 20 22 35 25
92 83 73 63 57 50 49 40 31 37 35 30 34 33 33 20 17 24 22 22 14 21
94 92 86 74 69 66 56 51 51 35 37 36 34 39 38 33 29 32 21 25 26 28
90 91 92 89 80 77 70 62 61 56 38 38 37 38 43 35 44 33 36 31 31 26
89 88 91 91 91 85 79 73 71 65 60 57 46 41 43 40 37 44 42 37 36 40
91 93 94 89 88 84 82 81 77 70 64 59 55 49 48 48 42 41 47 42 40 41
92 94 90 88 87 87 88 84 80 71 66 64 62 58 54 50 48 42 45 45 49 49
86 89 89 88 87 86 87 91 87 80 71 70 68 63 52 50 49 53 49 46 51 52
86 90 93 88 87 86 90 88 88 84 78 76 73 66 56 55 55 52 54 55 50 49
91 93 90 91 92 92 89 92 89 88 83 80 77 70 63 61 60 60 58 56 54 54
95 93 93 94 93 93 90 88 90 86 86 84 80 74 66 63 67 68 67 64 64 66
88 88 91 95 91 92 91 92 87 86 85 84 81 76 70 66 65 73 72 70 69 67
82 91 89 88 85 85 87 87 88 87 87 87 84 82 77 74 75 76 73 72 70 67
Wind_Direction_850mb
202 196 199 203 203 205 204 212 228 217 228 222 210 219 221 219 212 213 212 199 195 205
212 204 202 201 199 210 207 215 223 220 229 231 215 216 234 220 208 211 221 215 208 208
214 216 210 200 206 205 207 205 219 230 238 233 216 213 227 215 231 228 233 216 216 212
219 219 217 215 211 210 202 210 217 212 228 237 225 218 224 213 219 237 247 216 230 246
217 222 222 217 218 218 213 208 215 218 219 230 231 227 226 223 206 226 232 220 216 232
218 216 224 223 218 221 221 221 219 224 226 235 238 232 232 233 219 214 234 235 232 236
218 218 219 224 222 214 223 224 228 228 234 234 239 238 232 236 237 225 222 238 244 241
217 219 218 216 225 220 215 226 229 232 233 236 237 239 237 234 237 239 233 227 236 243
213 217 216 215 216 224 222 224 231 235 233 234 236 238 235 241 235 237 244 241 236 236
213 214 218 217 214 216 224 225 228 233 233 234 237 238 234 236 242 243 243 246 251 248
210 215 215 215 218 217 219 227 229 232 233 234 238 240 238 235 238 246 250 250 252 255
212 212 212 216 219 219 217 222 230 233 234 235 237 240 241 239 237 241 248 252 251 253
213 210 212 217 220 220 220 226 230 234 236 238 241 241 243 244 242 243 248 254 258 259
216 213 214 214 218 220 220 223 228 233 236 240 243 245 246 245 246 247 251 255 260 265